Regional Weather Roundup
Issued by NWS

Home | Current Version | Previous Version | Graphics & Text | Print | Product List | Glossary On
Versions: 1 2 3 4 5 6 7 8 9 10 11 12 13 14 15 16 17 18 19 20 21 22 23 24 25 26 27
000
ASUS45 KBOU 042307
RWRCO

WEATHER ROUNDUP FOR COLORADO
NATIONAL WEATHER SERVICE DENVER/BOULDER CO
400 PM MST SUN DEC 04 2016

NOTE: "FAIR" INDICATES FEW OR NO CLOUDS BELOW 12000 FEET WITH NO
SIGNIFICANT WEATHER AND/OR OBSTRUCTIONS TO VISIBILITY.

COZ001>005-013-030-031-050000-
...NORTHWEST COLORADO...

CITY           SKY/WX    TMP DP  RH WIND       PRES   REMARKS
CRAIG          FAIR      34  16  47 E6        29.98F WCI  29
HAYDEN         MOCLDY    28  12  50 SE9       29.98F WCI  20
MEEKER         FAIR      31  20  63 CALM      29.99F
MOUNT WERNER   NOT AVBL
STEAMBOAT SPGS CLOUDY    28  16  60 E5        29.99F WCI  23
WALDEN           N/A     30  14  51 S9G17     29.96S WCI  22
$$

COZ006>008-011-050000-
...WEST CENTRAL VALLEYS...

CITY           SKY/WX    TMP DP  RH WIND       PRES   REMARKS
GRAND JUNCTION FAIR      39  17  41 W3        30.08F
MONTROSE       FAIR      40  12  32 N5        30.09S
EAGLE          PTCLDY    37  10  32 SW7       30.03F
RIFLE          MOCLDY    37  12  35 E3        30.06F
DELTA          FAIR      42  12  30 CALM      30.09S
NUCLA          FAIR      41   9  26 CALM      30.12S
$$

COZ017>023-064>068-050000-
...SOUTHWEST COLORADO...

CITY           SKY/WX    TMP DP  RH WIND       PRES   REMARKS
DURANGO        FAIR      38  21  50 W8        30.07F
CORTEZ         FAIR      39  19  44 CALM      30.11S
PAGOSA SPRINGS FAIR      39  17  41 CALM      30.07F
TELLURIDE      FAIR      34   6  30 W12       30.10R WCI  25
WOLF CREEK PAS FAIR      23   5  46 S14       30.15F WCI  11
$$

COZ009-010-012-014-032>034-037-058>063-050000-
...CENTRAL COLORADO...

CITY           SKY/WX    TMP DP  RH WIND       PRES   REMARKS
ASPEN          FAIR      30  11  45 NW6       30.01F WCI  24
BUENA VISTA    FAIR      42  11  27 NW12G18   29.94S
COPPER MTN     FAIR      27  12  54 MISG      30.01  HAZE
BERTHOUD PASS  FAIR      14   3  62 MISG      29.96R
COTTONWOOD PAS FAIR      37   9  30 W29G53    29.94F
GUNNISON       FAIR      30   8  39 CALM      30.07F
KREMMLING      FAIR      34  14  44 CALM      29.99S
LEADVILLE      MOCLDY    30  12  47 N9        29.99S WCI  22
MONARCH PASS   FAIR      21   9  58 W43       30.13F WCI   0
SALIDA         FAIR      43  10  25 SW20G25   30.00R
SUNLIGHT       FAIR      21  18  86 SW17G28   30.06S FOG     WCI   7
WILKERSON PASS FAIR      30   9  40 W21G38    29.96F WCI  17
$$

COZ069>075-050000-
...SAN LUIS VALLEY/SANGRE DE CRISTO MOUNTAINS...

CITY           SKY/WX    TMP DP  RH WIND       PRES   REMARKS
ALAMOSA        FAIR      33  12  41 SW5       30.03F WCI  29
LA VETA PASS   FAIR      32   9  37 NE24G35   29.99F WCI  19
SAGUACHE       FAIR      32   3  29 SE8       30.06S WCI  25
$$

COZ035-036-038>040-050000-
...NORTHERN COLORADO FRONT RANGE...

CITY           SKY/WX    TMP DP  RH WIND       PRES   REMARKS
DENVER INTL AP MOCLDY    51  14  22 N5        29.82S
DMNS CITY PARK   N/A     51  12  20 E12G22    29.80S
AURORA         MOCLDY    51  10  19 E6        29.83S
FRONT RANGE AP NOT AVBL
ERIE MUNI ARPT FAIR      52  13  21 E8        29.79F
BOULDER MUN AP FAIR      52  18  25 E12G18    29.77F
CENTENNIAL     MOCLDY    49   9  19 E8        29.82F
BROOMFIELD     NOT AVBL
FORT COLLINS   FAIR      41  12  30 N13       29.79F
LONGMONT       FAIR      56  14  18 CALM      29.79F
$$

COZ041-046-047-076>085-087-088-050000-
...PIKES PEAK/PALMER DIVIDE AND SOUTHERN FOOTHILLS...

CITY           SKY/WX    TMP DP  RH WIND       PRES   REMARKS
COLO. SPRINGS  FAIR      42   9  25 SE10      29.88F
A. F. ACADEMY  FAIR      42   8  24 S6        29.86F
SCHRIEVER AFB  NOT AVBL
ELLICOTT       LGT RAIN N/A N/A N/A S7        29.87S
FALCON         FAIR      40   6  25 SE6       29.89S
FORT CARSON    FAIR      44  11  26 E7        29.85F
LIMON          FAIR      43   9  24 S9        29.86S
MONUMENT HILL  FAIR      37   9  30 SE10      29.87F
TRINIDAD       FAIR      53   8  16 SE6       29.89F
$$

COZ042>045-048>051-090-091-050000-
...NORTHEAST COLORADO...

CITY           SKY/WX    TMP DP  RH WIND       PRES   REMARKS
GREELEY ARPT   FAIR      38  13  35 S5        29.81F
AKRON          FAIR      42   7  23 W6        29.81F
BURLINGTON     FAIR      45   8  22 SW14      29.88F
WRAY           NOT AVBL
STERLING       FAIR      46  14  27 SW7       29.78F
HOLYOKE        FAIR      46  10  23 SW8       29.82F
FORT MORGAN    FAIR      42   8  24 W3        29.82F
$$

COZ086-089-092>099-050000-
...SOUTHEAST COLORADO...

CITY           SKY/WX    TMP DP  RH WIND       PRES   REMARKS
PUEBLO         FAIR      48  14  25 NE9       29.84F
LA JUNTA       FAIR      52  11  19 SE8       29.86F
LAMAR          FAIR      51  14  22 S9        29.88F
SPRINGFIELD      N/A     46  15  28 S20       29.92F
$$




USA.gov is the U.S. government's official web portal to all federal, state and local government web resources and services.